GEFSNGP_con_prob3kmehi_330.txt.gz
EHI
0 0 0 0 0 0 0 0 0 0 1 1 1 3 5 6 7 10 13 17 17 13 10 11 15 20 21 19 19 22 21 19 18 16 12 10 9 8 7 7 8 9 10 10
0 0 0 0 0 0 0 0 0 0 1 1 2 3 5 6 8 11 14 16 16 13 11 12 15 18 19 16 17 21 21 20 19 16 13 13 13 11 9 10 10 11 12 11
0 0 0 0 0 0 0 0 0 1 2 3 5 5 5 6 10 13 15 15 14 11 11 12 13 14 15 15 16 19 21 21 19 16 15 16 16 14 12 12 13 13 13 12
0 0 0 0 0 0 0 0 0 2 4 8 11 11 8 8 12 15 15 14 12 10 10 9 9 11 12 13 16 18 20 19 18 16 17 18 17 15 13 13 14 14 14 14
0 0 0 0 0 1 1 1 1 5 10 14 17 16 12 10 13 15 15 14 12 11 9 7 7 8 11 13 14 14 15 15 15 16 17 18 16 13 12 13 14 15 15 16
0 0 0 0 0 1 1 1 3 9 14 18 20 17 13 12 14 14 13 12 11 10 9 7 6 8 11 13 11 8 7 9 11 13 15 15 14 12 11 13 14 16 17 17
0 0 0 0 0 0 0 1 6 11 14 17 18 14 12 12 12 12 10 9 9 10 10 8 7 9 10 9 6 4 3 4 6 9 11 13 14 13 13 12 13 14 16 18
0 0 0 0 0 0 1 3 8 12 14 16 15 12 11 12 11 10 8 7 7 9 9 8 8 8 7 5 4 3 3 3 4 6 8 10 14 15 14 13 12 12 13 15
0 0 0 0 0 1 3 7 11 13 15 15 13 10 9 10 10 9 8 7 7 8 8 8 8 8 7 6 4 3 3 3 4 5 6 9 12 14 15 14 13 12 12 12
1 2 2 2 3 5 8 12 13 14 15 14 11 9 8 7 7 8 9 8 8 8 9 9 8 9 8 7 5 3 1 1 3 5 7 8 11 13 14 16 16 15 13 12
2 3 4 5 6 8 11 13 15 15 13 11 10 9 7 6 5 7 9 9 9 9 10 9 8 8 6 4 3 2 1 1 3 5 6 8 9 10 11 13 14 13 11 10
4 5 6 7 7 7 8 10 13 13 12 9 9 9 9 7 6 7 8 9 9 9 9 8 6 5 3 2 2 2 2 2 3 4 5 5 7 7 7 7 6 6 6 5
7 6 6 6 5 4 4 5 8 11 11 9 9 10 11 10 8 7 8 9 8 8 7 5 4 3 3 2 2 3 3 3 3 4 4 5 5 5 4 3 2 1 1 1
7 6 4 4 4 4 4 4 6 9 11 12 13 14 15 14 12 10 8 8 7 7 6 4 2 3 3 3 3 3 3 3 3 4 4 5 4 4 5 5 3 2 0 0
3 3 2 3 3 4 4 4 6 9 13 15 17 18 18 18 15 12 9 7 6 7 6 4 3 3 3 3 3 3 3 3 3 3 4 4 4 4 6 6 5 4 1 0
1 1 2 3 4 4 4 5 7 10 14 18 19 19 19 19 16 12 9 7 6 6 5 4 3 3 3 3 3 3 3 3 3 3 3 3 3 4 5 5 5 4 2 1
1 2 3 4 4 3 4 5 8 11 15 18 19 19 19 18 15 11 8 7 6 4 3 3 3 3 3 3 3 3 3 3 3 3 3 3 3 4 4 4 4 3 3 3
1 2 4 4 4 4 5 5 8 12 16 19 19 19 17 15 12 10 8 8 7 5 4 3 3 3 3 2 3 3 3 3 3 3 3 3 3 3 4 3 3 3 3 2
3 4 6 6 5 6 6 6 8 11 15 17 17 16 14 12 10 9 8 8 8 6 4 3 3 2 1 1 1 2 3 4 4 3 3 3 3 3 2 2 2 2 1 1
6 6 7 7 8 8 8 7 7 9 12 14 14 13 11 10 9 8 7 7 7 6 4 3 2 1 0 0 0 2 3 4 4 3 2 2 2 1 1 1 1 1 0 0
6 6 6 8 9 9 8 7 6 7 9 11 11 10 10 9 8 7 7 6 7 7 5 2 1 0 0 0 0 1 2 3 3 1 1 1 1 0 0 0 0 0 0 0
6 6 6 6 7 7 6 6 5 5 7 8 8 8 8 8 7 7 6 6 6 6 5 2 0 0 0 0 0 1 1 1 1 0 0 0 0 0 0 0 0 0 0 0
6 5 4 4 4 4 4 4 4 5 7 7 6 6 6 7 6 6 6 6 5 5 4 2 0 0 0 0 0 0 0 0 0 0 0 0 0 0 0 0 0 0 0 0
4 4 3 3 3 3 3 3 4 5 6 6 5 5 5 6 6 6 5 4 4 4 3 1 0 0 0 0 0 0 0 0 0 0 0 0 0 0 0 0 0 0 0 0
3 3 3 3 3 3 3 3 3 4 5 5 5 5 5 5 5 4 4 3 3 2 1 0 0 0 0 0 0 0 0 0 0 0 0 0 0 0 0 0 0 0 0 0
1 2 3 3 3 3 3 3 3 3 4 4 4 5 5 5 4 4 3 3 2 1 0 0 0 0 0 0 0 0 0 0 0 0 0 0 0 0 0 0 0 0 0 0
0 1 3 3 3 3 3 3 3 3 3 3 4 4 4 4 4 4 3 3 1 0 0 0 0 0 0 0 0 0 0 0 0 0 0 0 0 0 0 0 0 0 0 0

GEFSNGP_con_prob3kmehi_336.txt.gz
EHI
0 0 0 0 0 0 0 0 0 1 0 1 2 4 4 4 6 7 8 8 8 7 7 8 7 5 6 6 5 6 8 9 8 7 5 4 3 5 6 3 2 3 5 7
0 0 0 0 0 0 0 0 1 1 0 1 2 4 5 5 5 7 8 9 8 7 7 7 6 6 7 6 5 7 9 10 9 8 6 4 4 5 6 5 3 3 5 7
0 0 0 0 0 0 0 0 1 1 0 1 3 4 6 6 5 6 8 9 9 8 8 7 6 6 6 6 6 7 10 10 10 8 6 5 5 5 6 6 6 4 4 6
0 0 0 0 0 0 0 0 0 0 1 3 4 5 5 4 4 6 9 9 9 9 8 6 5 4 4 6 6 6 7 8 8 7 7 6 6 5 6 7 7 5 4 5
0 0 0 0 0 0 0 0 0 0 2 5 6 6 4 2 4 7 9 8 8 7 6 5 4 3 5 6 7 5 3 5 6 7 6 6 6 6 6 7 7 6 6 6
0 0 0 0 0 1 0 0 0 2 4 6 6 4 2 1 4 7 8 6 5 4 4 4 4 5 6 6 6 4 2 2 4 6 6 6 7 7 7 7 7 7 7 8
0 0 0 0 0 0 0 0 1 3 5 5 4 2 1 1 3 5 5 4 3 3 3 4 6 6 6 5 4 3 1 0 2 4 5 6 6 7 7 7 7 7 9 10
0 0 0 0 0 0 0 1 2 3 3 4 4 2 1 1 1 2 2 1 2 2 2 4 6 6 5 5 3 1 0 0 1 2 4 4 4 5 6 6 7 7 8 8
0 0 0 0 0 0 0 1 3 2 2 3 5 3 1 0 0 0 0 0 1 2 2 3 4 4 4 4 2 1 0 0 0 1 2 2 3 3 4 6 6 7 7 6
0 0 0 0 0 1 1 3 4 3 2 3 4 3 1 0 0 0 0 0 1 1 2 3 3 3 3 2 1 0 0 0 0 0 1 1 1 3 4 6 6 7 7 6
0 0 0 0 1 2 3 5 6 3 2 3 3 3 2 1 0 0 0 0 0 0 1 2 2 2 2 1 0 0 0 0 0 0 0 0 1 3 5 5 6 6 7 7
0 0 0 0 1 3 4 5 4 2 2 3 3 3 3 2 1 0 1 0 0 0 0 0 0 1 1 0 0 0 0 0 0 0 0 1 2 3 4 3 3 4 4 5
0 0 0 1 2 3 3 3 2 1 1 2 2 2 3 2 1 0 1 1 1 1 1 0 0 0 0 0 0 0 0 0 0 1 1 2 3 3 3 2 2 2 2 2
0 0 0 1 2 2 1 1 1 1 0 1 1 2 3 3 1 1 1 2 3 2 1 0 0 0 0 0 0 0 0 1 1 2 3 3 3 3 3 3 2 2 1 0
1 0 0 1 1 1 0 1 2 2 1 1 2 2 3 4 3 1 2 3 4 3 1 0 0 0 0 0 0 1 1 2 3 3 3 2 3 3 3 3 3 3 1 1
2 1 1 1 0 0 0 1 2 3 3 3 3 2 2 3 4 3 3 5 6 4 2 1 1 0 0 0 1 2 3 3 3 3 2 2 2 3 3 3 3 3 3 2
3 2 1 0 0 0 0 1 2 3 4 4 3 2 3 5 6 5 5 5 6 5 3 2 2 1 1 1 2 3 3 3 3 3 3 2 3 3 3 3 3 3 3 2
3 3 1 0 0 0 0 1 3 3 3 4 4 5 7 8 7 5 4 4 4 3 2 1 2 3 3 3 3 3 3 3 3 3 3 3 2 2 2 2 2 2 1 1
3 3 2 1 0 0 1 2 3 3 3 4 6 7 8 8 6 4 4 4 3 3 1 0 1 2 3 3 3 3 3 3 3 2 2 1 1 1 1 1 1 1 0 0
3 3 3 2 1 0 1 3 3 3 4 5 6 7 7 7 5 5 5 5 4 3 2 1 1 1 1 2 2 2 2 2 1 1 1 1 0 0 0 0 0 0 0 0
1 2 3 3 2 2 3 4 4 4 5 6 6 6 6 6 6 6 5 4 3 3 3 2 1 0 0 1 1 1 1 1 0 0 0 1 0 0 0 0 0 0 0 0
0 1 3 3 4 4 5 5 5 5 5 4 5 6 6 6 6 6 5 4 4 4 3 2 1 0 0 1 1 0 0 0 0 0 0 0 0 0 0 0 0 0 0 0
0 1 3 4 5 5 5 4 4 4 4 3 4 5 6 6 6 6 6 5 5 5 4 2 1 1 1 2 2 1 0 0 0 0 0 0 0 0 0 0 0 0 0 0
1 1 3 4 4 4 3 2 2 2 3 3 3 4 5 6 6 6 5 4 4 4 4 3 2 2 2 2 2 1 0 0 0 0 0 0 0 0 0 0 0 0 0 0
0 1 1 2 3 3 3 2 1 2 3 3 3 3 4 4 4 4 4 3 3 3 3 3 2 1 1 1 1 0 0 0 0 0 0 0 0 0 0 0 0 0 0 0
0 0 0 1 2 3 3 3 3 3 3 3 3 3 3 3 3 3 3 3 3 3 3 2 1 0 0 0 0 0 0 0 0 0 0 0 0 0 0 0 0 0 0 0
0 0 0 0 1 3 3 3 3 3 3 2 3 3 3 3 3 3 3 3 3 3 2 1 0 0 0 0 0 0 0 0 0 0 0 0 0 0 0 0 0 0 0 0

GEFSNGP_con_prob3kmehi_342.txt.gz
EHI
0 0 0 0 0 0 0 0 0 2 2 2 3 6 8 8 9 10 10 11 13 15 15 13 13 14 16 22 27 29 28 26 24 22 19 18 17 16 14 13 11 7 5 5
0 0 0 0 0 0 0 0 0 2 3 2 2 6 7 7 9 11 11 13 15 17 16 16 15 16 18 22 25 26 26 25 22 21 20 19 18 16 15 14 12 8 5 4
0 0 0 0 0 0 0 0 0 2 3 2 2 4 6 7 9 11 11 13 16 17 19 18 18 18 19 18 19 20 20 19 18 18 18 18 16 16 15 15 14 10 6 6
0 0 0 0 0 0 0 0 1 3 3 3 3 4 4 7 11 13 12 13 15 18 20 20 19 18 16 13 12 12 13 13 13 14 14 14 14 13 13 14 14 12 10 9
0 0 0 0 0 0 1 1 2 3 3 3 4 4 5 8 13 14 15 16 17 18 19 19 17 14 12 10 8 7 8 9 9 10 10 11 12 13 13 13 14 13 11 10
0 0 0 0 0 0 1 2 3 4 4 3 3 5 7 11 12 13 14 16 18 19 19 17 13 9 8 7 6 6 7 7 6 6 6 8 10 11 12 14 15 14 12 12
0 0 0 0 0 0 1 3 5 8 8 6 5 7 11 13 14 12 12 14 18 20 18 14 10 7 6 5 5 6 6 6 5 4 4 5 7 8 10 12 15 14 14 14
0 0 0 0 1 1 3 5 8 10 10 10 10 11 13 16 15 12 12 15 18 18 16 12 9 8 7 7 6 6 6 5 5 5 4 4 5 6 8 10 11 12 12 12
1 0 0 0 1 3 5 7 9 10 11 13 14 14 15 15 14 12 13 15 16 14 11 9 8 8 9 9 8 7 7 5 5 6 6 5 5 5 6 7 8 9 9 9
2 1 1 1 2 3 5 7 8 11 13 14 15 14 14 13 12 11 12 13 13 11 9 8 8 8 8 8 8 8 7 6 6 7 7 6 6 5 5 5 6 6 6 6
2 2 2 3 4 4 5 6 8 12 14 14 13 11 11 10 9 10 10 9 9 10 10 9 8 8 8 7 7 7 7 6 5 5 6 6 6 5 4 4 4 4 4 4
5 4 5 6 6 6 6 5 8 12 14 12 10 8 7 7 8 9 8 6 7 10 10 9 8 8 7 6 6 6 6 6 4 4 4 5 5 4 3 3 3 3 3 3
8 8 8 7 7 7 7 7 8 10 11 10 7 6 6 7 7 7 6 5 6 7 7 7 8 8 7 6 6 6 6 5 4 3 3 3 4 3 3 2 2 3 3 2
9 9 9 8 7 7 8 9 9 9 9 9 8 7 7 6 5 6 6 6 5 4 4 6 8 8 7 6 6 6 6 4 3 3 3 4 3 3 3 3 3 3 2 1
6 7 7 7 7 9 9 9 9 8 8 8 8 8 8 6 5 6 6 5 5 5 5 6 7 7 7 7 6 6 6 4 3 3 4 4 4 3 3 3 3 3 2 1
4 4 4 5 6 8 8 7 7 7 6 6 7 8 9 7 5 5 6 5 6 7 7 7 7 7 7 6 6 6 6 5 3 2 3 3 3 3 3 4 4 4 3 2
3 3 2 3 4 5 5 6 6 6 5 5 5 7 9 8 5 5 4 5 5 6 6 6 6 6 7 5 5 6 6 4 3 2 2 3 3 3 4 5 6 5 4 2
4 3 2 2 3 3 4 5 6 6 5 5 6 6 7 6 6 6 5 4 5 5 5 5 5 5 5 5 5 7 7 6 5 4 3 3 3 3 4 5 5 5 3 1
6 5 3 2 3 3 4 5 6 5 5 6 6 5 5 5 6 7 6 5 4 4 5 5 4 4 4 5 6 7 8 8 7 6 5 4 3 2 2 2 3 4 2 1
6 6 5 3 3 4 5 6 5 5 6 6 5 4 4 5 6 6 6 5 4 4 5 6 5 4 4 4 5 5 6 7 6 6 5 4 2 1 1 1 2 3 1 0
6 6 6 4 3 3 4 5 4 5 7 6 4 4 5 5 5 5 6 5 3 3 4 4 5 5 4 3 2 3 4 5 4 4 4 3 1 0 0 1 2 2 1 0
6 6 6 5 4 4 4 4 4 5 7 6 4 4 5 4 4 4 5 4 3 2 3 3 4 3 3 1 1 1 2 3 3 3 3 2 1 0 1 2 2 1 0 0
4 5 5 5 5 5 5 4 4 5 7 6 4 3 4 4 3 4 4 3 3 3 3 3 3 2 1 1 1 1 1 3 3 3 2 2 2 1 1 2 1 0 0 0
2 2 3 4 4 4 5 5 6 7 9 8 5 3 3 4 4 4 4 4 4 4 5 4 3 2 2 3 3 3 3 4 3 2 2 2 2 1 1 1 0 0 0 0
2 1 2 3 3 3 5 7 8 8 9 8 6 4 4 5 6 6 6 6 5 5 5 4 3 2 3 5 5 5 5 4 3 1 1 1 1 0 0 0 0 0 0 0
2 1 2 3 3 4 6 8 8 7 7 7 6 5 6 6 6 6 6 6 6 5 4 4 3 3 4 5 5 5 5 3 1 0 0 0 0 0 0 0 0 0 0 0
1 1 1 2 3 5 7 8 6 5 5 5 4 5 6 6 6 6 5 6 6 4 4 4 3 3 4 4 4 4 3 2 0 0 0 0 0 0 0 0 0 0 0 0

GEFSNGP_con_prob3kmehi_348.txt.gz
EHI
0 0 0 0 0 0 0 1 1 1 2 4 6 8 9 13 16 17 18 19 20 24 31 34 34 33 29 25 25 31 34 35 36 36 34 30 28 27 26 23 19 19 20 19
0 0 0 0 0 0 1 2 3 3 3 4 6 7 8 11 14 16 18 21 23 27 33 35 35 33 28 22 22 27 30 30 29 29 28 25 23 24 24 22 19 20 20 19
0 0 0 0 0 0 1 2 3 5 5 4 4 6 8 11 14 16 19 23 26 30 34 34 32 29 24 19 18 21 23 22 20 21 21 20 18 19 20 20 19 20 20 19
0 0 0 0 0 1 1 2 2 3 5 5 4 6 10 14 16 18 21 24 27 29 30 29 26 22 20 17 15 16 17 16 15 15 17 18 17 16 17 16 17 17 18 17
0 0 0 0 0 1 1 2 1 2 4 6 7 9 13 17 19 20 24 27 28 27 25 24 21 19 17 15 13 13 13 13 12 12 13 15 15 13 12 12 12 12 13 13
0 0 0 0 0 1 2 2 2 3 5 7 8 10 13 18 20 23 27 29 28 26 24 22 20 18 17 15 12 12 12 12 12 12 12 11 10 10 10 10 9 9 10 10
0 0 1 1 0 1 3 5 6 7 8 9 10 12 15 19 22 26 29 29 28 28 27 25 22 21 19 17 15 14 14 13 13 12 10 9 8 9 10 10 10 9 9 10
0 1 2 2 2 4 7 10 12 12 13 13 13 15 18 21 23 25 28 28 28 30 31 27 23 22 22 20 18 16 16 16 14 12 9 9 10 11 11 12 10 8 9 10
2 2 3 3 5 8 10 11 13 15 16 17 16 17 19 21 22 23 25 26 28 30 30 27 25 24 23 22 19 18 18 17 16 14 11 10 11 11 11 11 8 6 7 8
5 3 2 4 6 8 9 9 10 13 16 17 17 18 19 20 22 24 25 25 27 28 27 25 25 24 23 21 20 19 17 16 15 13 11 10 10 10 10 9 7 6 6 7
6 5 4 5 5 6 6 6 8 11 14 15 16 18 21 24 26 27 25 23 24 24 23 22 22 22 21 21 22 21 17 12 11 11 10 10 9 7 7 6 5 5 6 7
6 6 7 6 5 5 5 6 7 10 13 14 15 19 24 28 29 28 25 22 20 20 20 20 20 20 20 20 20 19 14 11 10 10 10 9 8 5 3 3 2 2 4 5
5 7 8 8 6 5 5 5 6 8 12 14 15 19 24 27 27 26 24 21 19 19 19 19 19 19 20 18 16 13 11 10 9 10 9 9 7 5 3 2 1 1 1 1
4 6 8 10 8 6 5 4 5 7 11 14 15 17 20 22 23 23 21 18 17 17 18 17 16 17 17 16 13 10 9 8 8 9 8 8 7 7 7 6 5 3 1 0
4 5 8 11 9 6 3 3 6 8 11 14 15 15 17 19 20 21 18 15 14 14 14 14 13 13 13 13 11 11 10 8 7 7 7 7 7 8 9 9 8 6 3 2
4 6 8 9 7 5 3 4 7 10 12 14 15 15 14 16 18 18 15 13 13 13 13 13 12 12 11 9 9 9 9 7 6 6 6 6 6 6 9 11 10 7 5 4
4 5 7 7 6 5 5 6 8 10 12 13 16 16 14 13 17 18 15 13 14 14 12 11 11 11 10 8 6 5 5 6 6 6 6 6 6 7 10 12 10 7 5 5
2 3 4 5 5 7 8 8 8 10 12 14 16 18 15 14 16 18 17 15 15 14 11 9 8 8 8 6 3 1 2 4 5 5 6 7 8 10 12 11 8 6 5 5
2 2 3 4 5 8 8 6 7 11 13 14 16 17 16 14 15 17 18 16 15 13 11 8 5 5 6 4 2 1 1 3 5 5 6 7 9 11 11 10 7 6 5 5
4 4 4 4 6 7 6 5 7 11 14 14 15 16 15 13 14 15 15 14 14 12 10 6 5 5 6 5 3 2 3 3 5 6 6 7 8 9 9 8 8 8 6 5
6 6 6 6 5 5 5 6 8 11 13 13 14 15 15 13 12 14 13 11 10 10 7 4 4 5 6 5 3 2 2 3 4 5 5 5 6 8 8 8 8 8 7 5
8 8 8 8 6 7 7 8 10 12 13 13 14 15 14 11 10 10 11 9 6 5 4 3 2 2 2 2 1 1 1 1 1 2 3 4 6 7 8 8 7 7 6 5
7 9 9 9 9 10 11 11 11 13 13 13 14 14 14 11 8 7 7 5 3 2 3 2 1 0 0 1 1 0 0 0 0 0 1 4 6 8 8 7 6 6 5 4
6 7 8 9 10 12 13 13 13 14 13 13 14 15 14 12 10 7 4 2 1 1 2 2 1 0 1 2 1 0 0 1 1 1 2 4 6 7 6 5 5 5 4 2
7 7 8 8 9 11 12 13 13 12 11 13 15 15 14 12 11 8 5 3 2 2 2 1 0 0 1 2 2 0 1 2 2 2 3 3 3 3 4 4 4 4 3 1
6 6 6 7 7 8 10 11 11 10 10 12 13 13 11 10 9 8 7 6 5 4 3 1 1 2 2 3 2 1 2 3 4 3 3 1 1 1 3 3 3 3 2 2
2 3 4 5 6 6 7 8 8 9 10 11 12 10 8 7 6 7 7 7 6 5 3 2 3 3 3 3 3 3 4 5 5 4 2 1 1 2 3 3 2 1 2 1

GEFSNGP_con_prob3kmehi_354.txt.gz
EHI
0 0 0 0 0 0 0 0 0 0 0 0 1 3 5 6 7 7 8 11 14 16 16 14 14 15 15 15 14 14 15 11 6 5 7 9 9 9 9 8 7 7 7 6
0 0 0 0 0 0 0 0 0 1 1 0 1 4 6 9 9 9 9 11 14 16 15 13 12 14 15 15 14 14 13 7 4 5 7 7 7 7 7 7 7 8 9 8
0 0 0 0 0 0 0 0 1 2 2 1 1 3 6 10 11 10 9 11 15 16 14 11 12 15 16 15 14 13 10 5 3 4 5 5 4 4 4 5 6 7 8 7
0 0 0 0 0 0 0 0 1 2 3 1 1 2 5 9 11 10 10 12 16 16 14 12 13 15 15 14 13 12 10 7 5 4 3 3 3 2 3 4 4 5 4 3
0 0 0 0 0 0 0 0 1 2 3 2 2 2 4 7 9 9 11 14 17 17 16 13 13 14 13 12 11 10 9 8 7 6 4 3 3 2 3 3 3 3 2 1
0 0 0 1 1 0 0 0 0 1 3 3 4 3 3 4 7 11 15 17 17 17 15 12 11 11 10 10 9 9 9 8 8 7 5 4 3 3 3 3 3 3 3 2
0 0 1 2 2 1 1 0 0 1 2 3 3 3 3 6 11 16 18 17 16 15 11 9 9 9 8 8 8 8 7 7 8 6 4 3 3 3 3 3 3 3 3 3
0 0 1 2 2 2 1 1 1 1 2 3 4 5 7 11 17 20 19 16 14 11 7 6 6 7 7 7 7 7 7 6 6 4 3 3 3 3 3 3 3 3 3 3
0 0 0 1 1 1 1 1 2 3 4 6 7 8 11 14 17 19 18 16 13 10 6 4 4 6 7 7 7 7 6 5 4 3 3 3 3 3 3 3 3 3 3 3
0 0 0 0 0 0 1 2 3 3 5 7 9 10 12 12 13 13 13 12 10 8 6 5 4 5 6 6 5 5 4 3 3 3 3 3 3 3 3 3 3 3 3 3
0 0 0 0 0 0 1 2 3 3 4 6 8 10 11 10 8 7 7 7 7 7 6 6 5 5 4 4 3 2 1 1 1 2 2 2 3 3 3 3 2 2 2 2
0 0 1 1 1 1 1 2 3 3 4 6 8 10 10 8 5 5 6 6 5 5 6 6 5 4 3 3 2 1 1 1 1 2 2 2 2 3 2 1 1 1 1 1
0 1 2 3 3 2 2 2 2 2 5 7 8 9 9 6 5 5 6 6 6 6 5 4 4 3 3 3 2 1 0 1 1 3 4 4 4 4 2 1 1 0 0 0
1 2 2 3 3 3 3 2 1 2 5 6 7 8 8 6 5 6 7 8 8 8 6 5 4 3 3 3 2 1 0 0 1 2 4 5 5 5 4 3 2 1 0 0
2 1 1 1 2 4 4 2 1 2 5 6 6 7 8 8 7 7 8 8 9 9 8 6 5 4 3 2 1 0 0 0 0 0 2 3 4 5 6 5 4 3 1 0
2 1 0 1 3 5 4 2 0 2 5 6 7 8 9 9 8 7 7 7 7 7 7 7 6 4 2 1 0 0 0 0 0 0 0 1 2 4 5 6 6 5 3 1
3 2 1 1 2 3 2 1 1 3 6 7 6 8 10 10 7 6 6 6 6 6 6 6 6 4 2 0 0 0 0 0 0 0 0 0 1 2 3 4 5 4 3 3
3 3 3 2 1 1 1 0 1 3 5 5 6 8 10 10 7 6 6 6 6 6 6 6 5 4 2 1 0 0 0 0 0 0 0 0 1 1 1 2 2 2 2 3
2 3 3 2 1 0 0 0 0 1 3 4 5 7 9 9 7 6 6 6 6 5 4 4 4 3 3 1 1 1 1 1 1 1 0 0 1 1 0 1 1 1 1 2
1 1 2 2 1 0 0 0 1 1 3 4 6 7 8 8 7 6 6 6 5 4 3 3 4 4 4 3 3 2 2 2 2 1 0 0 0 0 1 2 2 1 0 1
0 0 1 1 0 0 0 1 2 3 3 4 5 6 7 8 7 6 6 6 4 3 3 4 4 5 5 4 3 2 2 1 1 0 0 0 0 0 1 1 1 0 0 0
2 2 2 2 1 0 1 1 3 3 3 4 5 5 6 7 7 6 6 5 4 3 3 3 4 4 4 3 2 1 1 0 0 0 0 0 0 0 0 0 0 0 0 0
4 4 4 4 2 2 2 3 3 3 4 5 6 6 6 6 6 6 5 3 2 3 3 3 3 2 2 2 2 1 0 0 0 0 0 0 0 0 0 0 0 0 0 0
4 3 3 4 4 4 4 3 3 4 5 6 6 6 6 5 4 3 2 1 1 1 2 2 1 1 1 2 3 2 1 0 0 0 1 1 0 0 0 0 0 0 0 0
2 1 1 2 4 5 4 4 4 5 6 6 5 5 4 3 2 1 1 0 0 1 1 1 0 0 1 3 3 2 1 0 0 1 2 2 1 0 0 0 0 0 0 0
1 0 0 1 2 3 3 3 3 4 4 3 2 2 1 1 1 0 0 0 0 0 0 0 0 1 2 3 3 3 2 1 1 1 2 2 1 0 0 0 0 0 0 0
0 0 0 0 0 1 1 1 2 2 2 1 0 0 0 0 0 0 0 0 0 0 0 0 0 1 2 3 2 3 3 3 2 2 2 1 0 0 0 0 0 0 0 0

GEFSNGP_con_prob3kmehi_360.txt.gz
EHI
0 0 0 0 0 0 0 0 0 0 0 0 0 1 3 6 6 4 1 0 1 4 6 6 6 5 6 7 7 6 4 3 1 1 0 0 0 0 0 0 0 1 2 2
0 0 0 0 0 0 0 0 0 0 0 0 0 1 4 6 7 5 1 0 1 3 5 6 6 6 6 7 8 7 5 4 2 2 1 1 0 0 0 0 0 0 1 1
0 0 0 0 0 0 0 0 0 0 0 0 0 1 4 6 7 6 2 0 1 2 4 6 6 5 5 7 7 7 6 5 4 3 4 4 2 0 0 0 0 0 0 0
0 0 0 0 0 0 0 0 0 0 0 0 1 2 4 6 7 7 4 2 1 3 5 6 5 4 4 5 6 6 6 5 4 4 5 5 3 1 0 0 0 0 0 1
0 0 0 0 0 0 0 0 0 0 1 1 2 3 3 4 6 7 6 5 4 4 5 5 5 4 4 4 5 6 5 4 3 3 4 4 3 1 0 0 0 0 1 2
0 0 0 0 1 1 1 0 0 1 2 3 3 3 2 2 5 7 7 7 5 4 4 4 4 3 2 4 5 5 4 4 3 3 3 3 1 0 0 0 1 1 1 2
0 0 0 1 2 2 1 0 0 1 2 3 3 1 1 2 5 7 8 6 4 3 3 2 2 2 2 3 4 4 5 5 4 3 3 2 1 0 0 0 1 2 3 3
0 0 0 1 1 1 0 1 2 1 2 2 2 1 1 3 6 9 8 5 3 3 3 3 2 2 3 3 3 4 5 4 3 3 3 1 0 0 0 0 1 2 2 2
0 0 0 0 0 0 0 1 2 2 1 1 1 1 1 3 6 8 8 5 2 1 2 3 3 3 3 3 3 4 5 4 3 3 2 1 0 0 0 0 0 1 1 1
0 0 0 0 0 0 0 1 1 1 1 1 2 2 2 3 6 7 6 5 3 1 1 2 2 2 2 2 3 3 3 3 2 1 1 0 0 0 0 0 0 0 0 0
0 0 0 0 0 0 0 1 0 0 0 1 2 2 2 3 5 6 6 5 3 1 0 1 1 1 1 1 1 1 1 1 1 0 0 0 0 0 0 0 0 0 0 0
0 0 0 0 0 0 0 0 0 0 0 1 1 1 2 3 4 5 6 4 2 0 0 0 0 0 0 0 0 0 0 0 0 0 0 0 0 0 0 0 0 0 0 0
0 0 0 0 0 0 0 0 0 0 0 0 0 0 2 3 3 4 4 3 1 0 0 0 0 0 0 0 0 0 0 0 0 0 0 0 0 0 0 0 0 0 0 0
0 0 0 0 0 0 0 0 0 0 0 0 0 0 1 2 3 3 3 3 2 1 0 0 0 0 0 0 0 0 0 0 0 0 0 0 0 0 0 0 0 0 0 0
0 0 0 0 0 0 0 0 0 0 0 0 0 0 0 1 3 3 3 3 3 1 0 0 0 0 0 0 0 0 0 0 0 0 0 0 0 0 0 0 0 0 1 1
0 0 0 0 0 0 0 0 0 0 0 0 1 1 1 1 2 3 3 3 3 2 1 1 1 1 1 0 0 0 0 0 0 0 0 0 0 0 0 0 0 1 2 2
1 1 1 0 0 0 0 0 0 0 0 0 1 1 1 1 2 3 3 3 3 3 3 2 2 2 2 1 0 0 0 0 0 0 0 0 0 0 0 0 1 2 2 2
1 2 1 0 0 0 0 0 0 0 0 1 1 0 0 1 2 3 3 3 3 3 3 3 3 3 3 2 1 0 0 0 0 0 0 0 0 0 0 0 1 2 2 1
0 1 1 0 0 0 0 0 0 0 0 0 0 0 0 0 1 3 3 4 3 3 3 3 3 3 3 2 1 0 0 0 0 0 0 0 0 0 0 0 1 1 1 0
0 0 0 0 0 0 0 0 0 0 0 0 0 0 0 0 1 2 3 4 4 4 3 2 2 3 3 1 0 0 0 0 0 0 0 0 0 0 0 1 1 1 0 0
0 0 0 0 0 0 0 0 0 0 0 0 0 0 0 0 0 1 2 4 5 4 3 1 1 2 2 1 0 0 0 0 0 0 0 0 0 0 1 2 2 1 0 0
0 0 0 0 0 0 0 0 0 0 0 0 0 0 0 1 1 0 1 2 3 3 3 1 1 1 1 0 0 0 0 0 0 0 0 0 0 0 1 2 2 1 0 0
0 0 0 0 0 0 0 0 0 0 0 0 0 1 1 2 2 1 1 1 1 1 2 2 1 0 0 0 0 0 0 0 0 0 0 0 0 0 0 1 1 0 0 0
0 0 0 0 0 0 0 0 0 0 0 0 0 1 2 2 2 2 1 0 0 0 1 2 1 0 1 1 1 0 0 0 0 0 0 0 0 0 0 0 0 0 0 0
0 0 0 0 0 0 0 0 0 0 0 0 0 1 1 1 1 1 1 0 0 0 0 0 0 0 1 2 2 1 1 0 0 0 0 0 0 0 0 0 0 0 0 0
0 0 0 0 0 0 0 0 0 0 0 0 0 0 0 0 0 0 0 0 0 0 0 0 0 0 2 3 3 3 2 1 1 0 0 1 2 1 0 0 0 0 0 0
0 0 0 0 0 0 0 0 0 0 0 0 0 0 0 0 0 0 0 0 0 0 0 0 0 0 1 3 3 3 3 2 2 1 1 2 3 2 1 0 0 0 0 0